• In Netherlands
  • List of Countries
  • For 7 days
  • Water Temperature
  • Satellite Maps
  • Weather Map
  • Weather Widgets
  • user-avatar
    Login

    Hourly Weather Santiago del Estero

    Today, 26 May, Friday

    Time Temperature Precipitation Wind Pressure Humidity
    00:00 +17°C° 0 mm 3 mps 745 mmHg 68%
    01:00 +17°C° 0 mm 3 mps 745 mmHg 68%
    02:00 +15°C° 0 mm 4 mps 745 mmHg 68%
    03:00 +16°C° 0 mm 3 mps 746 mmHg 71%
    04:00 +14°C° 0 mm 3 mps 746 mmHg 73%
    05:00 +15°C° 0 mm 2 mps 746 mmHg 75%
    06:00 +14°C° 0 mm 3 mps 747 mmHg 73%
    07:00 +14°C° 0 mm 3 mps 747 mmHg 70%
    08:00 +14°C° 0 mm 4 mps 748 mmHg 67%
    09:00 +15°C° 0 mm 4 mps 749 mmHg 63%
    10:00 +17°C° 0 mm 4 mps 749 mmHg 58%
    11:00 +18°C° 0 mm 4 mps 749 mmHg 53%
    12:00 +19°C° 0 mm 5 mps 749 mmHg 49%
    13:00 +20°C° 0 mm 5 mps 749 mmHg 45%
    14:00 +21°C° 0 mm 5 mps 748 mmHg 41%
    15:00 +20°C° 0 mm 5 mps 749 mmHg 43%
    16:00 +19°C° 0 mm 4 mps 749 mmHg 44%
    17:00 +19°C° 0 mm 4 mps 749 mmHg 46%
    18:00 +17°C° 0 mm 3 mps 750 mmHg 49%
    19:00 +16°C° 0 mm 3 mps 750 mmHg 52%
    20:00 +14°C° 0 mm 3 mps 751 mmHg 55%
    21:00 +13°C° 0 mm 3 mps 752 mmHg 55%
    22:00 +14°C° 0 mm 2 mps 752 mmHg 54%
    23:00 +13°C° 0 mm 2 mps 753 mmHg 54%

    Tomorrow, 27 May, Saturday

    Time Temperature Precipitation Wind Pressure Humidity
    00:00 +12°C° 0 mm 2 mps 753 mmHg 55%
    01:00 +12°C° 0 mm 2 mps 753 mmHg 55%
    02:00 +10°C° 0 mm 2 mps 753 mmHg 55%
    03:00 +10°C° 0 mm 2 mps 753 mmHg 56%
    04:00 +9°C° 0 mm 2 mps 752 mmHg 57%
    05:00 +9°C° 0 mm 2 mps 752 mmHg 58%
    06:00 +9°C° 0 mm 2 mps 752 mmHg 58%
    07:00 +10°C° 0 mm 3 mps 753 mmHg 58%
    08:00 +10°C° 0 mm 3 mps 753 mmHg 57%
    09:00 +12°C° 0 mm 3 mps 753 mmHg 51%
    10:00 +14°C° 0 mm 3 mps 753 mmHg 45%
    11:00 +17°C° 0 mm 3 mps 753 mmHg 39%
    12:00 +17°C° 0 mm 4 mps 752 mmHg 36%
    13:00 +18°C° 0 mm 4 mps 752 mmHg 33%
    14:00 +19°C° 0 mm 4 mps 751 mmHg 30%
    15:00 +18°C° 0 mm 3 mps 750 mmHg 33%
    16:00 +18°C° 0 mm 3 mps 750 mmHg 36%
    17:00 +17°C° 0 mm 3 mps 750 mmHg 38%
    18:00 +14°C° 0 mm 3 mps 750 mmHg 43%
    19:00 +14°C° 0 mm 2 mps 750 mmHg 47%
    20:00 +12°C° 0 mm 2 mps 751 mmHg 52%
    21:00 +12°C° 0 mm 2 mps 751 mmHg 53%
    22:00 +12°C° 0 mm 2 mps 751 mmHg 54%
    23:00 +10°C° 0 mm 2 mps 751 mmHg 55%

    Day after tomorrow, 28 May, Sunday

    Time Temperature Precipitation Wind Pressure Humidity
    00:00 +10°C° 0 mm 2 mps 751 mmHg 57%
    01:00 +10°C° 0 mm 2 mps 750 mmHg 59%
    02:00 +9°C° 0 mm 2 mps 750 mmHg 61%
    03:00 +9°C° 0 mm 2 mps 750 mmHg 63%
    04:00 +9°C° 0 mm 2 mps 749 mmHg 65%
    05:00 +8°C° 0 mm 2 mps 749 mmHg 67%
    06:00 +9°C° 0 mm 2 mps 749 mmHg 67%
    07:00 +9°C° 0 mm 2 mps 749 mmHg 68%
    08:00 +9°C° 0 mm 2 mps 749 mmHg 68%
    09:00 +12°C° 0 mm 2 mps 749 mmHg 65%
    10:00 +14°C° 0 mm 2 mps 749 mmHg 61%
    11:00 +16°C° 0 mm 1 mps 750 mmHg 57%
    12:00 +17°C° 0 mm 2 mps 749 mmHg 55%
    13:00 +18°C° 0 mm 2 mps 748 mmHg 53%
    14:00 +19°C° 0 mm 2 mps 747 mmHg 51%
    15:00 +19°C° 0 mm 2 mps 747 mmHg 54%
    16:00 +18°C° 0 mm 2 mps 746 mmHg 57%
    17:00 +18°C° 0 mm 2 mps 746 mmHg 59%
    18:00 +17°C° 0 mm 2 mps 747 mmHg 63%
    19:00 +16°C° 0 mm 2 mps 747 mmHg 67%
    20:00 +15°C° 0 mm 2 mps 747 mmHg 71%
    21:00 +15°C° 0 mm 2 mps 747 mmHg 74%
    22:00 +14°C° 0 mm 2 mps 748 mmHg 77%
    23:00 +14°C° 0 mm 2 mps 748 mmHg 79%

    29 May, Monday

    Time Temperature Precipitation Wind Pressure Humidity
    00:00 +14°C° 0 mm 1 mps 747 mmHg 80%
    01:00 +13°C° 0 mm 1 mps 747 mmHg 81%
    02:00 +13°C° 0 mm 1 mps 747 mmHg 81%
    03:00 +14°C° 0 mm 1 mps 747 mmHg 81%
    04:00 +14°C° 0 mm 1 mps 747 mmHg 81%
    05:00 +14°C° 0 mm 1 mps 747 mmHg 81%
    06:00 +14°C° 0 mm 1 mps 747 mmHg 82%
    07:00 +14°C° 0 mm 1 mps 748 mmHg 82%
    08:00 +15°C° 0 mm 1 mps 748 mmHg 83%
    09:00 +15°C° 0 mm 1 mps 749 mmHg 82%
    10:00 +16°C° 0 mm 2 mps 749 mmHg 80%
    11:00 +16°C° 0 mm 2 mps 749 mmHg 79%
    12:00 +16°C° 0 mm 2 mps 749 mmHg 79%
    13:00 +16°C° 0 mm 3 mps 748 mmHg 80%
    14:00 +16°C° 0 mm 3 mps 747 mmHg 80%
    15:00 +16°C° 0.1 mm 3 mps 748 mmHg 82%
    16:00 +16°C° 0.1 mm 3 mps 748 mmHg 84%
    17:00 +16°C° 0.1 mm 3 mps 748 mmHg 86%
    18:00 +14°C° 0.1 mm 3 mps 748 mmHg 87%
    19:00 +14°C° 0.1 mm 3 mps 749 mmHg 88%
    20:00 +14°C° 0.1 mm 3 mps 749 mmHg 90%
    21:00 +14°C° 0.1 mm 3 mps 750 mmHg 90%
    22:00 +15°C° 0.1 mm 2 mps 750 mmHg 90%
    23:00 +15°C° 0.1 mm 2 mps 750 mmHg 90%

    30 May, Tuesday

    Time Temperature Precipitation Wind Pressure Humidity
    00:00 +14°C° 0.1 mm 2 mps 750 mmHg 91%
    01:00 +14°C° 0.1 mm 2 mps 749 mmHg 91%
    02:00 +14°C° 0.1 mm 2 mps 749 mmHg 91%
    03:00 +13°C° 0.1 mm 3 mps 749 mmHg 92%
    04:00 +13°C° 0.1 mm 3 mps 749 mmHg 92%
    05:00 +13°C° 0.1 mm 3 mps 749 mmHg 92%
    06:00 +13°C° 0.1 mm 3 mps 749 mmHg 92%
    07:00 +13°C° 0.1 mm 3 mps 750 mmHg 92%
    08:00 +13°C° 0.1 mm 3 mps 750 mmHg 91%
    09:00 +13°C° 0.1 mm 3 mps 750 mmHg 90%
    10:00 +14°C° 0.1 mm 3 mps 750 mmHg 88%
    11:00 +14°C° 0.1 mm 3 mps 750 mmHg 86%
    12:00 +16°C° 0 mm 3 mps 750 mmHg 83%
    13:00 +16°C° 0 mm 3 mps 749 mmHg 79%
    14:00 +17°C° 0 mm 3 mps 748 mmHg 75%
    15:00 +17°C° 0 mm 2 mps 748 mmHg 75%
    16:00 +17°C° 0 mm 2 mps 748 mmHg 74%
    17:00 +18°C° 0 mm 1 mps 748 mmHg 73%
    18:00 +16°C° 0 mm 2 mps 749 mmHg 77%
    19:00 +15°C° 0 mm 2 mps 749 mmHg 81%
    20:00 +15°C° 0 mm 2 mps 750 mmHg 84%
    21:00 +14°C° 0 mm 2 mps 750 mmHg 87%
    22:00 +13°C° 0 mm 2 mps 750 mmHg 91%
    23:00 +13°C° 0 mm 2 mps 750 mmHg 94%

    31 May, Wednesday

    Time Temperature Precipitation Wind Pressure Humidity
    00:00 +12°C° 0 mm 2 mps 749 mmHg 95%
    01:00 +12°C° 0 mm 2 mps 749 mmHg 96%
    02:00 +12°C° 0 mm 2 mps 749 mmHg 96%
    03:00 +12°C° 0 mm 2 mps 749 mmHg 96%
    04:00 +12°C° 0 mm 2 mps 749 mmHg 96%
    05:00 +12°C° 0 mm 2 mps 748 mmHg 96%
    06:00 +12°C° 0 mm 2 mps 749 mmHg 95%
    07:00 +13°C° 0 mm 2 mps 749 mmHg 93%
    08:00 +13°C° 0 mm 2 mps 750 mmHg 92%
    09:00 +15°C° 0 mm 2 mps 750 mmHg 85%
    10:00 +16°C° 0 mm 2 mps 750 mmHg 78%
    11:00 +17°C° 0 mm 2 mps 751 mmHg 71%
    12:00 +18°C° 0 mm 2 mps 750 mmHg 65%
    13:00 +20°C° 0 mm 2 mps 749 mmHg 59%
    14:00 +21°C° 0 mm 2 mps 749 mmHg 53%
    15:00 +20°C° 0 mm 2 mps 749 mmHg 56%
    16:00 +19°C° 0 mm 2 mps 749 mmHg 58%
    17:00 +19°C° 0 mm 2 mps 749 mmHg 61%
    18:00 +17°C° 0 mm 2 mps 749 mmHg 69%
    19:00 +15°C° 0 mm 2 mps 749 mmHg 77%
    20:00 +14°C° 0 mm 2 mps 750 mmHg 85%
    21:00 +13°C° 0 mm 2 mps 750 mmHg 87%
    22:00 +13°C° 0 mm 1 mps 750 mmHg 89%
    23:00 +12°C° 0 mm 1 mps 750 mmHg 91%
    Show more